Provo, UT

7:42 PM MDT on October 13, 2019 (GMT -0600)
Provo Municipal

Weather History for KPVU - August, 2019

Change the Weather History Date:

Sunday, August 18, 2019

  Actual Average Record
Temperature  
Mean Temperature 76 °F -  
Max Temperature 96 °F 86 °F 101 °F (1986)
Min Temperature 57 °F 56 °F 53 °F (1987)
Cooling Degree Days 11    
Growing Degree Days 26 (Base 50)    
Moisture  
Dew Point 41 °F    
Average Humidity 35    
Maximum Humidity 70    
Minimum Humidity 9    
Precipitation  
Precipitation 0.00 in - - ()
Sea Level Pressure  
Sea Level Pressure 29.82 in    
Wind  
Wind Speed 4 mph (SE)    
Max Wind Speed 10 mph    
Max Gust Speed -    
Visibility 10 miles    
Events      
Averages and records for this station are not official NWS values.
T = Trace of Precipitation, MM = Missing Value Source: NWS Daily Summary

Daily Weather History Graph

Daily Weather History Graph

Search for Another Location

Airport or City:

Astronomy

Aug. 18, 2019 Rise Set
Actual Time 6:40 AM MDT 8:19 PM MDT
Civil Twilight 6:11 AM MDT 8:48 PM MDT
Nautical Twilight 5:37 AM MDT 9:23 PM MDT
Astronomical Twilight 4:59 AM MDT 10:00 PM MDT
Moon 10:16 PM MDT (8/18) 9:29 AM MDT (8/18)
Length of Visible Light 14h 36m
Length of Day
13h 39m
Waning Gibbous, 91% of the Moon is Illuminated
Aug 18
Waning Gibbous
Aug 23
Last Quarter
Aug 30
New
Sep 5
First Quarter
Sep 13
Full

Hourly Weather History & Observations

Time (MDT) Temp. Dew Point Humidity Pressure Visibility Wind Dir Wind Speed Gust Speed Precip Events Conditions
12:56 AM 64.9 °F 50.0 °F 58% 29.78 in 10.0 mi South 5.8 mph - N/A   Clear
1:56 AM 62.1 °F 48.9 °F 62% 29.78 in 10.0 mi Calm Calm - N/A   Clear
2:56 AM 66.0 °F 45.0 °F 47% 29.78 in 10.0 mi SSE 4.6 mph - N/A   Clear
3:56 AM 61.0 °F 46.9 °F 60% 29.80 in 10.0 mi East 3.5 mph - N/A   Clear
4:56 AM 60.1 °F 46.9 °F 62% 29.80 in 10.0 mi SSE 3.5 mph - N/A   Clear
5:56 AM 57.9 °F 48.0 °F 70% 29.82 in 10.0 mi Calm Calm - N/A   Clear
6:56 AM 57.0 °F 46.0 °F 67% 29.85 in 10.0 mi Variable 3.5 mph - N/A   Clear
7:56 AM 63.0 °F 46.9 °F 56% 29.87 in 10.0 mi Calm Calm - N/A   Clear
8:56 AM 70.0 °F 44.1 °F 39% 29.88 in 10.0 mi Variable 3.5 mph - N/A   Clear
9:56 AM 73.9 °F 46.9 °F 38% 29.89 in 10.0 mi ESE 4.6 mph - N/A   Clear
10:56 AM 82.0 °F 37.9 °F 21% 29.88 in 10.0 mi SE 3.5 mph - N/A   Clear
11:56 AM 86.0 °F 36.0 °F 17% 29.88 in 10.0 mi ESE 6.9 mph - N/A   Clear
12:56 PM 87.1 °F 34.0 °F 15% 29.87 in 10.0 mi Variable 3.5 mph - N/A   Clear
1:56 PM 90.0 °F 34.0 °F 14% 29.86 in 10.0 mi Variable 3.5 mph - N/A   Clear
2:56 PM 93.0 °F 34.0 °F 12% 29.81 in 10.0 mi East 10.4 mph - N/A   Partly Cloudy
3:56 PM 95.0 °F 32.0 °F 11% 29.79 in 10.0 mi East 5.8 mph - N/A   Clear
4:56 PM 95.0 °F 28.9 °F 10% 29.77 in 10.0 mi Variable 6.9 mph - N/A   Partly Cloudy
5:56 PM 95.0 °F 30.9 °F 10% 29.77 in 10.0 mi South 5.8 mph - N/A   Partly Cloudy
6:56 PM 93.9 °F 27.0 °F 9% 29.76 in 10.0 mi Calm Calm - N/A   Partly Cloudy
7:56 PM 87.1 °F 42.1 °F 21% 29.76 in 10.0 mi Calm Calm - N/A   Clear
8:56 PM 82.0 °F 48.9 °F 31% 29.77 in 10.0 mi SSW 4.6 mph - N/A   Clear
9:56 PM 73.9 °F 39.9 °F 29% 29.80 in 10.0 mi SE 6.9 mph - N/A   Clear
10:56 PM 73.0 °F 48.0 °F 41% 29.81 in 10.0 mi SE 3.5 mph - N/A   Clear
11:56 PM 68.0 °F 46.0 °F 45% 29.83 in 10.0 mi ESE 6.9 mph - N/A   Clear